Weather History for KTFP - December, 2012

Change the Weather History Date:

Thursday, December 27, 2012

  Actual Average Record
Temperature  
Mean Temperature 52 °F -  
Max Temperature 57 °F - - ()
Min Temperature 47 °F - - ()
Degree Days  
Heating Degree Days 13    
Growing Degree Days 2 (Base 50)    
Moisture  
Dew Point 47 °F    
Average Humidity 79    
Maximum Humidity 92    
Minimum Humidity 63    
Precipitation  
Precipitation 0.00 in - - ()
Sea Level Pressure  
Sea Level Pressure 29.92 in    
Wind  
Wind Speed 8 mph (NNE)    
Max Wind Speed 13 mph    
Max Gust Speed -    
Visibility 10 miles    
Events      
T = Trace of Precipitation, MM = Missing Value Source: NWS Daily Summary

Daily Weather History Graph

Daily Weather History Graph

Search for Another Location

Airport or City:

Trip Planner

Search our weather history database for the weather conditions in past years. The results will help you decide how hot, cold, wet, or windy it might be!

Date:

Astronomy

Dec. 27, 2012 Rise Set
Actual Time 7:18 AM CST 5:41 PM CST
Civil Twilight 6:52 AM CST 6:07 PM CST
Nautical Twilight 6:23 AM CST 6:36 PM CST
Astronomical Twilight 5:54 AM CST 7:05 PM CST
Moon 5:23 PM CST (12/27) 6:33 AM CST (12/27)
Length of Visible Light 11h 14m
Length of Day
10h 23m
Full, 100% of the Moon is Illuminated
Dec 27
Full
Dec 28
Full
Jan 4
Last Quarter
Jan 11
New
Jan 18
First Quarter

Hourly Weather History & Observations

Time (CST) Temp. Dew Point Humidity Pressure Visibility Wind Dir Wind Speed Gust Speed Precip Events Conditions
12:15 AM 48.9 °F 36.9 °F 63% 30.11 in 10.0 mi NNE 3.5 mph - N/A   Overcast
12:35 AM 49.1 °F 37.0 °F 63% 30.10 in 10.0 mi NNE 5.8 mph - N/A   Overcast
12:55 AM 49.1 °F 37.4 °F 64% 30.09 in 10.0 mi NE 6.9 mph - N/A   Overcast
1:15 AM 49.1 °F 37.6 °F 64% 30.07 in 10.0 mi NE 8.1 mph - N/A   Overcast
1:35 AM 48.6 °F 37.8 °F 66% 30.08 in 10.0 mi NNE 5.8 mph - N/A   Overcast
1:55 AM 48.7 °F 37.8 °F 66% 30.08 in 10.0 mi NNE 6.9 mph - N/A   Overcast
2:15 AM 48.9 °F 38.3 °F 67% 30.06 in 10.0 mi NNE 10.4 mph - N/A   Overcast
2:35 AM 48.7 °F 38.5 °F 68% 30.06 in 10.0 mi NNE 11.5 mph - N/A   Overcast
2:55 AM 48.9 °F 38.5 °F 67% 30.06 in 10.0 mi NNE 9.2 mph - N/A   Overcast
3:15 AM 48.9 °F 38.8 °F 68% 30.05 in 10.0 mi NNE 8.1 mph - N/A   Overcast
3:55 AM 48.9 °F 39.0 °F 69% 30.03 in 10.0 mi NNE 11.5 mph - N/A   Overcast
4:15 AM 48.7 °F 38.7 °F 68% 30.02 in 10.0 mi NE 11.5 mph - N/A   Overcast
4:35 AM 48.4 °F 38.3 °F 68% 30.01 in 10.0 mi NE 11.5 mph - N/A   Overcast
4:55 AM 48.2 °F 37.4 °F 66% 30.02 in 10.0 mi NNE 11.5 mph - N/A   Overcast
5:35 AM 47.8 °F 37.0 °F 66% 30.00 in 10.0 mi NNE 9.2 mph - N/A   Overcast
5:55 AM 48.2 °F 37.4 °F 66% 30.00 in 10.0 mi NNE 10.4 mph - N/A   Overcast
6:15 AM 48.4 °F 37.9 °F 67% 30.01 in 10.0 mi NE 10.4 mph - N/A   Overcast
6:35 AM 48.4 °F 37.6 °F 66% 29.99 in 10.0 mi NE 12.7 mph - N/A   Overcast
6:55 AM 48.4 °F 37.9 °F 67% 29.98 in 10.0 mi NE 10.4 mph - N/A   Overcast
7:15 AM 48.6 °F 38.8 °F 69% 29.99 in 10.0 mi NE 8.1 mph - N/A   Overcast
7:35 AM 48.9 °F 39.9 °F 71% 29.99 in 10.0 mi NE 9.2 mph - N/A   Overcast
7:55 AM 49.3 °F 40.8 °F 73% 29.99 in 10.0 mi NE 8.1 mph - N/A   Overcast
8:15 AM 49.8 °F 41.7 °F 74% 29.98 in 10.0 mi NE 11.5 mph - N/A   Overcast
8:35 AM 50.2 °F 42.8 °F 76% 29.99 in 10.0 mi NE 10.4 mph - N/A   Overcast
8:55 AM 50.7 °F 43.9 °F 77% 29.99 in 10.0 mi ENE 10.4 mph - N/A   Overcast
9:15 AM 51.1 °F 44.8 °F 79% 29.98 in 10.0 mi NE 12.7 mph - N/A   Overcast
9:35 AM 52.0 °F 45.5 °F 79% 29.99 in 10.0 mi NE 12.7 mph - N/A   Overcast
9:55 AM 52.9 °F 46.2 °F 78% 29.99 in 10.0 mi NE 9.2 mph - N/A   Overcast
10:35 AM 54.3 °F 49.1 °F 83% 29.98 in 10.0 mi NE 9.2 mph - N/A   Overcast
10:55 AM 55.4 °F 49.5 °F 80% 29.97 in 10.0 mi NNE 10.4 mph - N/A   Overcast
11:15 AM 55.0 °F 50.0 °F 83% 29.97 in 10.0 mi NNE 9.2 mph - N/A   Drizzle
11:35 AM 54.0 °F 50.4 °F 88% 29.96 in 10.0 mi North 8.1 mph - N/A   Overcast
11:55 AM 53.4 °F 50.7 °F 91% 29.95 in 10.0 mi NNE 5.8 mph - N/A   Overcast
12:15 PM 53.2 °F 50.7 °F 91% 29.93 in 7.0 mi North 5.8 mph - N/A   Overcast
12:35 PM 53.8 °F 51.4 °F 92% 29.91 in 7.0 mi NNE 8.1 mph - N/A   Overcast
12:55 PM 54.0 °F 51.6 °F 92% 29.90 in 7.0 mi North 9.2 mph - N/A   Light Drizzle
1:15 PM 54.0 °F 51.8 °F 92% 29.89 in 7.0 mi North 10.4 mph - N/A   Overcast
1:35 PM 54.1 °F 51.8 °F 92% 29.88 in 10.0 mi North 9.2 mph - N/A   Overcast
1:55 PM 54.5 °F 51.8 °F 91% 29.87 in 10.0 mi North 10.4 mph - N/A   Overcast
2:35 PM 56.1 °F 52.0 °F 86% 29.85 in 10.0 mi NNE 9.2 mph - N/A   Overcast
2:55 PM 56.1 °F 51.8 °F 85% 29.84 in 10.0 mi North 10.4 mph - N/A   Overcast
3:15 PM 55.8 °F 51.4 °F 85% 29.84 in 10.0 mi NNE 9.2 mph - N/A   Overcast
3:35 PM 55.9 °F 51.4 °F 85% 29.84 in 10.0 mi NNE 9.2 mph - N/A   Overcast
3:55 PM 56.3 °F 51.6 °F 84% 29.82 in 10.0 mi NE 10.4 mph - N/A   Overcast
4:15 PM 56.7 °F 52.0 °F 84% 29.82 in 10.0 mi North 9.2 mph - N/A   Overcast
4:35 PM 56.5 °F 52.0 °F 85% 29.82 in 10.0 mi North 8.1 mph - N/A   Overcast
4:55 PM 56.8 °F 52.5 °F 85% 29.82 in 10.0 mi NNE 8.1 mph - N/A   Overcast
5:15 PM 56.7 °F 52.7 °F 87% 29.81 in 10.0 mi NNE 8.1 mph - N/A   Overcast
5:35 PM 56.5 °F 52.7 °F 87% 29.81 in 10.0 mi NNE 8.1 mph - N/A   Overcast
5:55 PM 56.8 °F 52.9 °F 87% 29.82 in 10.0 mi North 6.9 mph - N/A   Overcast
6:15 PM 57.2 °F 53.1 °F 86% 29.82 in 10.0 mi North 9.2 mph - N/A   Overcast
6:35 PM 57.2 °F 53.1 °F 86% 29.82 in 10.0 mi North 8.1 mph - N/A   Overcast
6:55 PM 57.4 °F 53.1 °F 85% 29.82 in 10.0 mi North 8.1 mph - N/A   Overcast
7:15 PM 57.6 °F 53.1 °F 85% 29.82 in 10.0 mi North 8.1 mph - N/A   Overcast
7:35 PM 57.4 °F 52.9 °F 85% 29.83 in 10.0 mi North 6.9 mph - N/A   Overcast
7:55 PM 57.2 °F 52.9 °F 85% 29.82 in 10.0 mi North 6.9 mph - N/A   Overcast
8:15 PM 57.2 °F 52.9 °F 85% 29.83 in 10.0 mi North 6.9 mph - N/A   Overcast
8:35 PM 57.0 °F 52.9 °F 86% 29.83 in 10.0 mi North 6.9 mph - N/A   Overcast
8:55 PM 56.7 °F 52.7 °F 87% 29.83 in 10.0 mi North 5.8 mph - N/A   Overcast
9:15 PM 56.7 °F 52.7 °F 87% 29.84 in 10.0 mi North 5.8 mph - N/A   Overcast
9:35 PM 56.8 °F 52.7 °F 86% 29.83 in 10.0 mi North 8.1 mph - N/A   Overcast
9:55 PM 57.0 °F 52.9 °F 86% 29.84 in 7.0 mi NNW 9.2 mph - N/A   Overcast
10:15 PM 56.8 °F 52.7 °F 86% 29.84 in 7.0 mi North 9.2 mph - N/A   Overcast
10:35 PM 56.5 °F 52.5 °F 87% 29.82 in 7.0 mi North 5.8 mph - N/A   Mostly Cloudy
10:55 PM 56.1 °F 52.5 °F 88% 29.82 in 7.0 mi North 5.8 mph - N/A   Mostly Cloudy
11:15 PM 56.3 °F 52.7 °F 88% 29.81 in 7.0 mi North 4.6 mph - N/A   Overcast
11:35 PM 56.5 °F 52.7 °F 87% 29.80 in 7.0 mi North 4.6 mph - N/A   Overcast
11:55 PM 55.9 °F 52.3 °F 88% 29.80 in 7.0 mi North 4.6 mph - N/A   Scattered Clouds